Location: Ferma
(41.9500°N, 44.5167°E)
Time: 11:39:06
(UTC+00:00)

Cosmos 1269 Rocket - Pass Details

Date: 07 June 2022
Orbit: 773 x 778 km, 74.1° (Epoch: 01 July)

Event Time Altitude Azimuth Distance (km) Brightness Sun altitude
Rises 18:57:29 0° 353° (N) 3,258 8.5 -19.2°
Reaches altitude 10° 19:00:36 10° 12° (NNE) 2,327 7.2 -19.5°
Maximum altitude 19:04:15 19° 56° (NE) 1,800 6.0 -19.9°
Enters shadow 19:06:47 14° 89° (E) 2,066 6.0 -20.1°
